Terminal Aerodrome Forecast
Issued by NWS St Louis, MO

Home | Current Version | Previous Version | Text Only | Print | Product List | Glossary On
Versions: 1 2 3 4 5 6 7 8 9 10 11 12 13 14 15 16 17 18 19 20 21 22
000
FTUS43 KLSX 131100
TAFSTL
TAF
KSTL 131120Z 1312/1418 30006KT P6SM SCT050 BKN250
     FM131500 27008KT P6SM SCT050 BKN100
     FM132000 33008KT P6SM VCTS SCT050CB BKN100
     FM140100 35004KT P6SM SCT250=

USA.gov is the U.S. government's official web portal to all federal, state and local government web resources and services.